DNO773 LGKP-LGKJ

Flight info

Callsign DNO773
Flight time 0h 42m
Altitude 11000
Route ROXOL G80 RDS M601 EXELA
Aircraft B36T/L-BDFGLORY/S

Departure

Time 2026-04-20 19:22
Airport Karpathos Airport (LGKP)

Arrival

Time 2026-04-20 20:05
Airport Kastelorizo Airport (LGKJ)
Time Latitude Longitude Altitude Speed Heading
2026-04-20 19:21 35.42809 27.13351 53 ft 29 kts 118°
2026-04-20 19:21 35.42506 27.13884 98 ft 106 kts 126°
2026-04-20 19:21 35.42199 27.14840 180 ft 130 kts 99°
2026-04-20 19:21 35.42030 27.15961 259 ft 135 kts 92°
2026-04-20 19:22 35.42313 27.17110 223 ft 156 kts 44°
2026-04-20 19:22 35.43092 27.18091 343 ft 164 kts 49°
2026-04-20 19:22 35.43598 27.19353 615 ft 165 kts 65°
2026-04-20 19:22 35.43998 27.20668 906 ft 164 kts 65°
2026-04-20 19:23 35.44397 27.21982 1193 ft 164 kts 65°
2026-04-20 19:23 35.44799 27.23293 1500 ft 165 kts 63°
2026-04-20 19:23 35.45210 27.24623 1804 ft 167 kts 62°
2026-04-20 19:23 35.45621 27.25960 2101 ft 167 kts 62°
2026-04-20 19:24 35.46027 27.27282 2403 ft 165 kts 62°
2026-04-20 19:24 35.46434 27.28600 2705 ft 165 kts 62°
2026-04-20 19:24 35.46839 27.29916 3005 ft 165 kts 62°
2026-04-20 19:24 35.47243 27.31234 3306 ft 164 kts 62°
2026-04-20 19:25 35.47645 27.32541 3601 ft 163 kts 62°
2026-04-20 19:25 35.48038 27.33818 3895 ft 162 kts 62°
2026-04-20 19:25 35.48436 27.35116 4195 ft 162 kts 62°
2026-04-20 19:25 35.48834 27.36411 4498 ft 162 kts 63°
2026-04-20 19:26 35.49232 27.37708 4810 ft 162 kts 63°
2026-04-20 19:26 35.49629 27.39004 5097 ft 162 kts 63°
2026-04-20 19:26 35.50026 27.40298 5388 ft 162 kts 63°
2026-04-20 19:26 35.50423 27.41594 5692 ft 162 kts 63°
2026-04-20 19:27 35.50821 27.42893 5996 ft 163 kts 63°
2026-04-20 19:27 35.51219 27.44194 6303 ft 163 kts 64°
2026-04-20 19:27 35.51618 27.45498 6595 ft 163 kts 64°
2026-04-20 19:27 35.52019 27.46804 6887 ft 164 kts 64°
2026-04-20 19:28 35.52417 27.48111 7179 ft 164 kts 64°
2026-04-20 19:28 35.52818 27.49421 7466 ft 164 kts 64°
2026-04-20 19:28 35.53221 27.50737 7769 ft 165 kts 64°
2026-04-20 19:28 35.53618 27.52041 8061 ft 166 kts 64°
2026-04-20 19:29 35.54027 27.53383 8365 ft 166 kts 64°
2026-04-20 19:29 35.54427 27.54692 8666 ft 166 kts 64°
2026-04-20 19:29 35.54832 27.56019 8973 ft 166 kts 64°
2026-04-20 19:29 35.55237 27.57351 9284 ft 167 kts 64°
2026-04-20 19:30 35.55645 27.58688 9594 ft 167 kts 64°
2026-04-20 19:30 35.56053 27.60030 9908 ft 168 kts 63°
2026-04-20 19:30 35.56462 27.61375 10195 ft 168 kts 64°
2026-04-20 19:30 35.56874 27.62727 10483 ft 169 kts 64°
2026-04-20 19:31 35.57287 27.64085 10775 ft 170 kts 64°
2026-04-20 19:31 35.57706 27.65460 10995 ft 176 kts 63°
2026-04-20 19:31 35.58149 27.66916 11003 ft 187 kts 63°
2026-04-20 19:31 35.58608 27.68431 11011 ft 191 kts 64°
2026-04-20 19:32 35.59074 27.69968 11009 ft 192 kts 64°
2026-04-20 19:32 35.59536 27.71493 11013 ft 193 kts 64°
2026-04-20 19:32 35.60005 27.73040 11012 ft 193 kts 64°
2026-04-20 19:32 35.60475 27.74590 11011 ft 193 kts 64°
2026-04-20 19:33 35.60945 27.76142 11008 ft 194 kts 64°
2026-04-20 19:33 35.61414 27.77692 11009 ft 194 kts 64°
2026-04-20 19:33 35.61884 27.79245 11009 ft 194 kts 64°
2026-04-20 19:33 35.62354 27.80800 11009 ft 194 kts 64°
2026-04-20 19:34 35.62824 27.82356 11011 ft 194 kts 64°
2026-04-20 19:34 35.63293 27.83911 11013 ft 194 kts 64°
2026-04-20 19:34 35.63763 27.85464 11011 ft 194 kts 64°
2026-04-20 19:34 35.64232 27.87019 11010 ft 194 kts 64°
2026-04-20 19:35 35.64701 27.88575 11010 ft 194 kts 65°
2026-04-20 19:35 35.65169 27.90131 11011 ft 194 kts 64°
2026-04-20 19:35 35.65633 27.91670 11010 ft 194 kts 64°
2026-04-20 19:35 35.66108 27.93246 11011 ft 194 kts 64°
2026-04-20 19:36 35.66570 27.94784 11011 ft 194 kts 64°
2026-04-20 19:36 35.67039 27.96344 11011 ft 194 kts 64°
2026-04-20 19:36 35.67506 27.97898 11010 ft 194 kts 64°
2026-04-20 19:36 35.67975 27.99456 11010 ft 194 kts 64°
2026-04-20 19:37 35.68441 28.01011 11007 ft 194 kts 65°
2026-04-20 19:37 35.68909 28.02569 11007 ft 194 kts 64°
2026-04-20 19:37 35.69376 28.04129 11007 ft 194 kts 64°
2026-04-20 19:37 35.69844 28.05689 11007 ft 194 kts 64°
2026-04-20 19:38 35.70312 28.07252 11004 ft 195 kts 65°
2026-04-20 19:38 35.70780 28.08816 11000 ft 195 kts 64°
2026-04-20 19:38 35.71250 28.10386 11001 ft 196 kts 64°
2026-04-20 19:38 35.71720 28.11958 11001 ft 196 kts 64°
2026-04-20 19:39 35.72189 28.13527 11004 ft 195 kts 64°
2026-04-20 19:39 35.72657 28.15096 11005 ft 195 kts 63°
2026-04-20 19:39 35.73125 28.16663 10999 ft 195 kts 63°
2026-04-20 19:39 35.73595 28.18233 10999 ft 196 kts 64°
2026-04-20 19:40 35.74063 28.19806 10999 ft 196 kts 64°
2026-04-20 19:40 35.74530 28.21375 10999 ft 195 kts 64°
2026-04-20 19:40 35.74999 28.22946 11000 ft 196 kts 63°
2026-04-20 19:40 35.75462 28.24502 10999 ft 196 kts 64°
2026-04-20 19:41 35.75932 28.26081 10996 ft 196 kts 64°
2026-04-20 19:41 35.76399 28.27654 10997 ft 196 kts 64°
2026-04-20 19:41 35.76867 28.29227 10996 ft 196 kts 63°
2026-04-20 19:41 35.77337 28.30809 10996 ft 196 kts 64°
2026-04-20 19:42 35.77805 28.32384 10981 ft 197 kts 64°
2026-04-20 19:42 35.78276 28.33972 10885 ft 198 kts 64°
2026-04-20 19:42 35.78747 28.35562 10787 ft 197 kts 63°
2026-04-20 19:42 35.79219 28.37149 10700 ft 197 kts 64°
2026-04-20 19:43 35.79683 28.38715 10602 ft 196 kts 65°
2026-04-20 19:43 35.80150 28.40294 10505 ft 196 kts 65°
2026-04-20 19:43 35.80616 28.41867 10409 ft 195 kts 65°
2026-04-20 19:43 35.81080 28.43439 10308 ft 195 kts 65°
2026-04-20 19:44 35.81544 28.45009 10217 ft 194 kts 65°
2026-04-20 19:44 35.82007 28.46573 10121 ft 194 kts 65°
2026-04-20 19:44 35.82467 28.48131 10029 ft 194 kts 65°
2026-04-20 19:44 35.82927 28.49691 9927 ft 193 kts 65°
2026-04-20 19:45 35.83386 28.51245 9832 ft 193 kts 65°
2026-04-20 19:45 35.83837 28.52775 9725 ft 193 kts 66°
2026-04-20 19:45 35.84293 28.54325 9615 ft 192 kts 66°
2026-04-20 19:45 35.84750 28.55878 9512 ft 192 kts 65°
2026-04-20 19:46 35.85207 28.57431 9413 ft 193 kts 66°
2026-04-20 19:46 35.85664 28.58982 9308 ft 192 kts 66°
2026-04-20 19:46 35.86119 28.60531 9205 ft 192 kts 65°
2026-04-20 19:46 35.86574 28.62079 9100 ft 192 kts 66°
2026-04-20 19:47 35.87027 28.63625 9002 ft 192 kts 66°
2026-04-20 19:47 35.87480 28.65168 8892 ft 191 kts 66°
2026-04-20 19:47 35.87932 28.66709 8789 ft 191 kts 66°
2026-04-20 19:47 35.88383 28.68245 8687 ft 190 kts 66°
2026-04-20 19:48 35.88827 28.69761 8586 ft 190 kts 66°
2026-04-20 19:48 35.89276 28.71294 8485 ft 190 kts 66°
2026-04-20 19:48 35.89724 28.72827 8383 ft 190 kts 66°
2026-04-20 19:48 35.90173 28.74360 8281 ft 189 kts 66°
2026-04-20 19:49 35.90619 28.75887 8179 ft 189 kts 66°
2026-04-20 19:49 35.91065 28.77412 8078 ft 189 kts 66°
2026-04-20 19:49 35.91510 28.78937 7981 ft 189 kts 66°
2026-04-20 19:49 35.91955 28.80461 7882 ft 189 kts 66°
2026-04-20 19:50 35.92401 28.81989 7781 ft 189 kts 66°
2026-04-20 19:50 35.92845 28.83515 7685 ft 189 kts 66°
2026-04-20 19:50 35.93290 28.85040 7584 ft 189 kts 66°
2026-04-20 19:50 35.93734 28.86567 7485 ft 189 kts 66°
2026-04-20 19:51 35.94174 28.88074 7390 ft 189 kts 66°
2026-04-20 19:51 35.94617 28.89600 7293 ft 189 kts 66°
2026-04-20 19:51 35.95061 28.91125 7195 ft 189 kts 66°
2026-04-20 19:51 35.95505 28.92654 7098 ft 189 kts 66°
2026-04-20 19:52 35.95947 28.94175 6995 ft 188 kts 66°
2026-04-20 19:52 35.96389 28.95698 6909 ft 188 kts 66°
2026-04-20 19:52 35.96829 28.97216 6802 ft 187 kts 68°
2026-04-20 19:52 35.97266 28.98721 6706 ft 186 kts 67°
2026-04-20 19:53 35.97701 29.00224 6611 ft 185 kts 67°
2026-04-20 19:53 35.98132 29.01710 6517 ft 185 kts 67°
2026-04-20 19:53 35.98565 29.03206 6420 ft 185 kts 67°
2026-04-20 19:53 35.98999 29.04708 6323 ft 185 kts 67°
2026-04-20 19:54 35.99433 29.06207 6223 ft 185 kts 67°
2026-04-20 19:54 35.99866 29.07705 6121 ft 185 kts 67°
2026-04-20 19:54 36.00299 29.09203 6020 ft 185 kts 68°
2026-04-20 19:54 36.00731 29.10701 5918 ft 185 kts 67°
2026-04-20 19:55 36.01164 29.12200 5813 ft 185 kts 67°
2026-04-20 19:55 36.01596 29.13697 5707 ft 185 kts 67°
2026-04-20 19:55 36.02027 29.15194 5610 ft 185 kts 67°
2026-04-20 19:55 36.02459 29.16693 5506 ft 185 kts 67°
2026-04-20 19:56 36.02745 29.17687 5437 ft 185 kts 67°
2026-04-20 19:56 36.03175 29.19182 5339 ft 185 kts 67°
2026-04-20 19:56 36.03746 29.21162 5208 ft 185 kts 67°
2026-04-20 19:56 36.04177 29.22665 5109 ft 185 kts 67°
2026-04-20 19:57 36.04470 29.23683 5040 ft 186 kts 67°
2026-04-20 19:57 36.04896 29.25170 4948 ft 186 kts 66°
2026-04-20 19:57 36.05325 29.26663 4852 ft 183 kts 66°
2026-04-20 19:57 36.05749 29.28141 4747 ft 182 kts 66°
2026-04-20 19:58 36.06173 29.29618 4633 ft 182 kts 66°
2026-04-20 19:58 36.06596 29.31095 4549 ft 182 kts 66°
2026-04-20 19:58 36.07018 29.32568 4441 ft 177 kts 67°
2026-04-20 19:58 36.07408 29.33945 4330 ft 165 kts 66°
2026-04-20 19:59 36.07791 29.35271 4221 ft 162 kts 66°
2026-04-20 19:59 36.08214 29.36552 4109 ft 158 kts 51°
2026-04-20 19:59 36.08953 29.37526 4008 ft 156 kts 43°
2026-04-20 19:59 36.09665 29.38548 3907 ft 157 kts 44°
2026-04-20 20:00 36.10383 29.39571 3793 ft 158 kts 44°
2026-04-20 20:00 36.11097 29.40583 3667 ft 158 kts 44°
2026-04-20 20:00 36.11819 29.41617 3544 ft 159 kts 44°
2026-04-20 20:00 36.12545 29.42652 3422 ft 160 kts 44°
2026-04-20 20:01 36.13279 29.43690 3300 ft 160 kts 44°
2026-04-20 20:01 36.14005 29.44731 3189 ft 159 kts 44°
2026-04-20 20:01 36.14730 29.45756 3090 ft 158 kts 44°
2026-04-20 20:01 36.15453 29.46779 2988 ft 158 kts 44°
2026-04-20 20:02 36.16180 29.47808 2888 ft 159 kts 44°
2026-04-20 20:02 36.16913 29.48838 2792 ft 159 kts 44°
2026-04-20 20:02 36.17451 29.50027 2684 ft 160 kts 74°
2026-04-20 20:02 36.17343 29.51386 2577 ft 160 kts 104°
2026-04-20 20:03 36.17035 29.52504 2435 ft 111 kts 104°
2026-04-20 20:03 36.16800 29.53320 2027 ft 98 kts 107°
2026-04-20 20:03 36.16538 29.54065 1765 ft 92 kts 115°
2026-04-20 20:03 36.16228 29.54750 1488 ft 91 kts 120°
2026-04-20 20:04 36.15881 29.55407 1211 ft 90 kts 123°
2026-04-20 20:04 36.15518 29.56034 949 ft 89 kts 126°
2026-04-20 20:04 36.15097 29.56600 734 ft 89 kts 137°
2026-04-20 20:04 36.14636 29.57114 558 ft 91 kts 139°
2026-04-20 20:05 36.14167 29.57642 466 ft 84 kts 141°
2026-04-20 20:05 36.13942 29.57869 453 ft 9 kts 179°
2026-04-20 20:05 36.13935 29.57869 453 ft 0 kts 174°